Home > Weather > Erfurt > Past weeks

Flag for Germany Past Weather in Erfurt, Thuringia, Germany — Yesterday and Last 2 Weeks

Now
72 °F

Partly cloudy.


Feels Like: 74 °F
Forecast: 64 / 76 °F
Wind: 12 mph from Northwest

Location: Erfurt-Bindersleben

Current Time: Jul 26, 2016 at 12:04:20 AM

Latest Report: Jul 25, 2016 at 11:20 PM


Visibility: N/A

Pressure: 30.09 "Hg

Humidity: 73%

Dew Point: 63 °F

Location of ErfurtLocation

Past Weather in Erfurt — Graph

°F

Erfurt Temperature Yesterday

Maximum temperature yesterday: 82 °F (at 12:20 PM)
Minimum temperature yesterday: 64 °F (at 2:20 AM)
Average temperature yesterday: 72 °F

High & Low Weather Summary for the Past Weeks

 TemperatureHumidityPressure
High88 °F (Jul 20, 2:50 PM)100% (Jul 14, 7:50 AM)30.30 "Hg (Jul 14, 7:50 AM)
Low46 °F (Jul 16, 4:50 AM)27% (Jul 20, 2:50 PM)29.80 "Hg (Jul 11, 3:50 AM)
Average67 °F70%30.06 "Hg
* Reported Jul 10 10:20 PM — Jul 25 10:50 PM, Erfurt, Weather by CustomWeather, © 2016

Note: Actual official high and low records may vary slightly from our data, if they occured in-between our weather recording intervals... More about our weather records

Advertising

Erfurt Weather History for the Previous 24 Hours

Scroll right to see more
 ConditionsComfort  
Time TempWeatherWind HumidityBarometerVisibility
10:50 PM
Mon, Jul 25
72 °FPassing clouds.9 mph73%30.09 "HgN/A
10:20 PM72 °FClear.7 mph73%30.09 "Hg10 mi
9:50 PM73 °FSunny.9 mph74%30.09 "Hg10 mi
9:20 PM73 °FScattered clouds.8 mph69%30.09 "HgN/A
8:50 PM72 °FScattered showers. Scattered clouds.7 mph78%30.07 "HgN/A
8:20 PM73 °FScattered showers. Scattered clouds.8 mph74%30.07 "HgN/A
7:50 PM75 °FScattered showers. Broken clouds.3 mph69%30.07 "HgN/A
7:20 PM77 °FThunderstorms. Broken clouds.2 mph61%30.07 "HgN/A
6:50 PM77 °FPartly sunny.2 mph61%30.07 "HgN/A
6:20 PM77 °FThundershowers. Partly sunny.6 mph61%30.07 "HgN/A
5:50 PM79 °FThundershowers. Partly sunny.7 mph61%30.07 "HgN/A
5:20 PM79 °FThundershowers. Partly sunny.8 mph61%30.07 "HgN/A
4:50 PM77 °FBroken clouds.10 mph61%30.07 "HgN/A
4:20 PM73 °FSprinkles. Broken clouds.14 mph78%30.07 "HgN/A
3:50 PM79 °FPartly sunny.5 mph58%30.07 "HgN/A
3:20 PM79 °FPartly sunny.8 mph61%30.07 "HgN/A
2:50 PM77 °FPartly sunny.9 mph65%30.07 "HgN/A
2:20 PM75 °FPartly sunny.9 mph69%30.07 "HgN/A
1:50 PM75 °FScattered clouds.10 mph65%30.07 "HgN/A
1:20 PM77 °FScattered showers. Broken clouds.7 mph61%30.07 "HgN/A
12:50 PM79 °FBroken clouds.2 mph54%30.07 "HgN/A
12:20 PM82 °FBroken clouds.2 mph48%30.07 "HgN/A
11:50 AM81 °FPartly sunny.3 mph48%30.07 "HgN/A
11:20 AM79 °FPartly sunny.3 mph54%30.07 "HgN/A
10:50 AM77 °FPartly sunny.3 mph57%30.09 "HgN/A
10:20 AM77 °FSunny.2 mph57%30.07 "Hg10 mi
9:50 AM73 °FSunny.5 mph74%30.09 "Hg10 mi
9:20 AM70 °FSunny.5 mph83%30.09 "Hg10 mi
8:50 AM68 °FSunny.7 mph88%30.09 "Hg10 mi
8:20 AM68 °FSunny.7 mph88%30.09 "Hg10 mi
7:50 AM68 °FSunny.5 mph83%30.09 "Hg10 mi
7:20 AM66 °FSunny.5 mph88%30.07 "Hg10 mi
6:50 AM64 °FSunny.6 mph94%30.07 "Hg10 mi
6:20 AM64 °FClear.6 mph94%30.07 "Hg10 mi
5:50 AM64 °FClear.6 mph88%30.07 "Hg10 mi
5:20 AM64 °FClear.5 mph88%30.07 "Hg10 mi
4:50 AM64 °FClear.6 mph88%30.07 "Hg10 mi
4:20 AM64 °FClear.6 mph88%30.09 "Hg10 mi
3:50 AM64 °FClear.6 mph88%30.09 "Hg10 mi
3:20 AM64 °FClear.6 mph88%30.09 "Hg10 mi
2:50 AM64 °FClear.6 mph88%30.09 "Hg10 mi
2:20 AM64 °FClear.7 mph88%30.09 "Hg10 mi
1:50 AM66 °FClear.8 mph83%30.09 "Hg10 mi
1:20 AM66 °FClear.8 mph83%30.09 "Hg10 mi
12:50 AM68 °FClear.5 mph78%30.09 "Hg10 mi
12:20 AM68 °FPassing clouds.3 mph78%30.09 "HgN/A
Weather by CustomWeather, © 2016

See weather overviewHow to use our weather pages